Regional Weather Roundup
Issued by NWS

Home | Current Version | Previous Version | Text Only | Print | Product List | Glossary Off
Versions: 1 2 3 4 5 6 7 8 9 10 11 12 13 14 15 16 17 18 19 20 21 22 23 24 25 26 27

000
ASUS45 KPSR 270510
RWRAZ

ARIZONA HOURLY REGIONAL WEATHER ROUNDUP
NATIONAL WEATHER SERVICE PHOENIX AZ
1000 PM MST TUE JUL 26 2016

NOTE: FAIR INDICATES FEW OR NO CLOUDS BELOW 12,000 FEET WITH NO
SIGNIFICANT WEATHER AND/OR OBSTRUCTIONS TO VISIBILITY.

AZZ001>003-036-270600-
NORTHWEST ARIZONA

CITY           SKY/WX    TMP DP  RH WIND       PRES   REMARKS
BULLHEAD CITY  CLEAR    104  54  18 SE7       29.70R HX 102
KINGMAN        PTCLDY    92  49  22 S9        29.98R
$$

AZZ004>008-015-016-018-270600-
NORTH CENTRAL ARIZONA

CITY           SKY/WX    TMP DP  RH WIND       PRES   REMARKS
GRAND CANYON   PTCLDY    61  42  49 CALM      30.28R
WILLIAMS       MOCLDY    68  57  68 S7        30.36S
PRESCOTT       CLOUDY    78  56  46 SW3       30.15R
FLAGSTAFF      MOCLDY    63  55  75 CALM      30.32R
PAYSON         MOCLDY    79  50  36 NE5       30.17S
PAGE           CLEAR     88  41  19 SW8       30.03R
$$

AZZ009>014-017-270600-
NORTHEAST ARIZONA

CITY           SKY/WX    TMP DP  RH WIND       PRES   REMARKS
WINSLOW        MOCLDY    78  49  35 SW3       30.13R
SAINT JOHNS    CLOUDY    72  58  61 S7        30.19R
WINDOW ROCK    MOCLDY    77  47  34 N9        30.29R
SHOW LOW       MOCLDY    68  50  52 CALM      30.28R
$$

AZZ023-270600-
GREATER PHOENIX AREA

CITY           SKY/WX    TMP DP  RH WIND       PRES   REMARKS
PHOENIX        PTCLDY   102  59  24 SW7       29.75R HX 102
BUCKEYE        CLEAR     99  57  25 SW7       29.77R
LUKE AFB       PTCLDY   102  59  24 SW5       29.75R HX 101
DEER VALLEY    CLEAR    102  56  21 CALM      29.78R HX 101
SCOTTSDALE     CLEAR    102  57  22 CALM      29.80R HX 101
MESA-GATEWAY   PTCLDY    99  59  26 SW6       29.80R
$$

AZZ027-028-270600-
SOUTHWEST MARICOPA COUNTY AND PINAL COUNTY

CITY           SKY/WX    TMP DP  RH WIND       PRES   REMARKS
CASA GRANDE    MOCLDY    93  63  36 S20       29.85R
GILA BEND      PTCLDY   102  56  21 SW9       29.76R HX 101
$$

AZZ503-504-507>509-270600-
SOUTHEAST ARIZONA

CITY           SKY/WX    TMP DP  RH WIND       PRES   REMARKS
TUCSON         TSTM      83  65  54 SE18      30.03R
DAVIS-MONTHAN  TSTM      77  66  69 E10       30.02R
NOGALES        CLOUDY    77  66  68 E6        30.10R THUNDER
SIERRA VISTA   CLOUDY    80  56  45 W16       30.15R THUNDER
DOUGLAS        CLOUDY    78  63  59 NW8       30.06R
SAFFORD        CLOUDY    89  60  37 N7        29.95R
$$

AZZ020-021-025-026-031-270600-
SOUTHWEST ARIZONA

CITY           SKY/WX    TMP DP  RH WIND       PRES   REMARKS
YUMA           PTCLDY    93  68  43 SE7       29.74R
$$

CAZ031-033-041-043-047-048-061-270600-
SOUTHERN CALIFORNIA

CITY           SKY/WX    TMP DP  RH WIND       PRES   REMARKS
DOWNTOWN L.A.  CLEAR     71  64  78 VRB3      29.88R
L.A. AIRPORT   PTCLDY    70  65  84 W6        29.89R
SAN DIEGO      PTCLDY    71  65  81 W6        29.90R
BURBANK        CLEAR     76  59  55 SE10      29.89R
ONTARIO        CLEAR     81  44  27 NW9       29.90R
RIVERSIDE      CLEAR     81  53  37 W5        29.90R
PALM SPRINGS   CLEAR    101  54  20 NW12      29.76R
EL CENTRO NAS  CLEAR     99  55  23 S6        29.72R
IMPERIAL       CLEAR    102  63  27 S8        29.70R HX 104
BLYTHE         CLEAR    106  58  20 SW9       29.72R HX 106
NEEDLES        MOCLDY   107  51  15 SW8       29.73R HX 104
$$

NVZ020-UTZ003-270600-
SOUTHERN NEVADA-UTAH

CITY           SKY/WX    TMP DP  RH WIND       PRES   REMARKS
LAS VEGAS      PTCLDY   105  39  10 SW5       29.78R
SALT LAKE CITY CLEAR     85  29  13 NW7       30.03R
$$

NMZ009-TXZ055-270600-
NEW MEXICO-WEST TEXAS

CITY           SKY/WX    TMP DP  RH WIND       PRES   REMARKS
ALBUQUERQUE    CLOUDY    78  55  44 S13       30.21R
EL PASO        MOCLDY    82  59  45 E6        30.06R
$$


........................KEY........................
SKY/WX - SKY CONDITION/WEATHER
TMP    - TEMPERATURE IN FAHRENHEIT
DP     - DEW POINT IN FAHRENHEIT
RH     - RELATIVE HUMIDITY IN PERCENT
WIND   - DIRECTION AND SPEED IN MILES PER HOUR (MPH)
VRB    - VARIABLE WIND DIRECTION
PRES   - MEAN SEA LEVEL PRESSURE IN INCHES OF MERCURY
         F - FALLING PRESSURE   R - RISING PRESSURE
         S - STEADY PRESSURE
VSB    - VISIBILITY IN MILES
HX     - HEAT INDEX IN FAHRENHEIT
WCI    - WIND CHILL INDEX IN FAHRENHEIT
TC     - TEMPERATURE IN CELSIUS WHICH IS ALSO KNOWN AS
         TEMPERATURE IN CENTIGRADE
AFB    - AIR FORCE BASE
         LUKE AFB IS LUKE AIR FORCE BASE
         DAVIS-MONTHAN IS DAVIS-MONTHAN AIR FORCE BASE
NAS    - NAVAL AIR STATION
         EL CENTRO NAS IS EL CENTRO NAVAL AIR STATION
N/A    - NOT AVAILABLE





USA.gov is the U.S. government's official web portal to all federal, state and local government web resources and services.